sat.trackr.live / text

‹ back to catalog

STARLINK-36508

NORAD 67410 · 2026-005G

PAYLOAD ACTIVE UNKNOWN

§ Identity

Operator
Country
US
Launch date
2026-01-12
Launch site
AFETR
Launch vehicle
Mass (kg)
RCS (m²)

Purposes: comms

External: N2YO · Heavens-Above · Gunter

§ Orbital elements

Epoch: 2026-05-25T01:41:38.633856Z

Period
94.27 min
Inclination
42.9991°
Eccentricity
0.0000930
Mean motion
15.27600852 rev/d
Perigee alt
482.3 km
Apogee alt
483.6 km
Semi-major
6,861.1 km
B*
7.9830e-4
RAAN
167.0004°
Arg perigee
264.8320°
Mean anomaly
95.2425°
Rev number
2,037

§ Raw data

STARLINK-365081 67410U 26005G   26145.07058604  .00021784  00000+0  79830-3 0  99902 67410  42.9991 167.0004 0000930 264.8320  95.2425 15.27600852 20374

JSON: /api/v1/satellites/67410 · /tle

For live sub-satellite position, see the globe view (requires WebGL).

§ Visibility from observer

Set your observer location to see the next 7 days of passes ≥ 10°. The values pass through the URL so the page stays shareable.

No JS? Fill the form by hand. The geolocation button needs JavaScript.